sat.trackr.live / text

‹ back to catalog

STARLINK-37592

NORAD 69025 · 2026-101A

PAYLOAD ACTIVE UNKNOWN

§ Identity

Operator
Country
US
Launch date
2026-05-06
Launch site
AFWTR
Launch vehicle
Mass (kg)
RCS (m²)

Purposes: comms

External: N2YO · Heavens-Above · Gunter

§ Orbital elements

Epoch: 2026-05-25T03:40:43.551840Z

Period
91.42 min
Inclination
97.2849°
Eccentricity
0.0001179
Mean motion
15.75226506 rev/d
Perigee alt
343.2 km
Apogee alt
344.8 km
Semi-major
6,722.1 km
B*
9.9846e-4
RAAN
359.8905°
Arg perigee
82.9209°
Mean anomaly
277.2190°
Rev number
301

§ Raw data

STARLINK-375921 69025U 26101A   26145.15328185  .00151710  00000+0  99846-3 0  99962 69025  97.2849 359.8905 0001179  82.9209 277.2190 15.75226506  3011

JSON: /api/v1/satellites/69025 · /tle

For live sub-satellite position, see the globe view (requires WebGL).

§ Visibility from observer

Set your observer location to see the next 7 days of passes ≥ 10°. The values pass through the URL so the page stays shareable.

No JS? Fill the form by hand. The geolocation button needs JavaScript.